Skip Page Navigation
NASA JPL Caltech
NASA Logo - Jet Propulsion Laboratory + View the NASA Portal
+ Near-Earth Object (NEO) Program
Search JPL
JPL Home Earth Solar System Stars & Galaxies Technology
JPL Solar System Dynamics
BODIES ORBITS EPHEMERIDES TOOLS PHYSICAL DATA DISCOVERY FAQ SITE MAP
JPL Small-Body Database Browser
Search: [ help ]  
135978 Agueros (2002 TD304)
Classification: Main-belt Asteroid          SPK-ID: 2135978
Ephemeris | Orbit Diagram | Orbital Elements | Physical Parameters | Discovery Circumstances ]

[ show orbit diagram ]
Orbital Elements at Epoch 2456800.5 (2014-May-23.0) TDB
Reference: JPL 5 (heliocentric ecliptic J2000)
 Element Value Uncertainty (1-sigma)   Units 
e .1589359719512532 9.5534e-08  
a 2.734296807581936 3.4991e-08 AU
q 2.299718686865692 2.6677e-07 AU
i 7.909182595895464 1.1073e-05 deg
node 53.14641963052829 6.9437e-05 deg
peri 263.1220957683993 7.9858e-05 deg
M 249.2450851610176 4.131e-05 deg
tp 2457308.574521362721
(2015-Oct-13.07452136)
0.00019343 JED
period 1651.455630266999
4.52
3.1701e-05
8.679e-08
d
yr
n .21798950780276 4.1844e-09 deg/d
Q 3.168874928298179 4.0552e-08 AU
  Orbit Determination Parameters
   # obs. used (total)      206  
   data-arc span      7478 days (20.47 yr)  
   first obs. used      1993-10-09  
   last obs. used      2014-03-31  
   planetary ephem.      DE431  
   SB-pert. ephem.      SB431-BIG16  
   condition code      0  
   fit RMS      .62033  
   data source      ORB  
   producer      Otto Matic  
   solution date      2014-Apr-17 16:09:18  

Additional Information
 Earth MOID = 1.30188 AU 
 T_jup = 3.321 
[ show covariance matrix ]

Ephemeris | Orbit Diagram | Orbital Elements | Physical Parameters | Discovery Circumstances ]

Physical Parameter Table
Parameter Symbol Value Units Sigma Reference Notes
absolute magnitude H 15.8 mag n/a MPO251231  

135978 Agüeros           Discovered 2002 Oct. 4 by the Sloan Digital Sky Survey at Apache Point.
Marcel Agüeros (b. 1973) is a French-Puerto Rican astronomer and a contributor to the Sloan Digital Sky Survey. Marcel has worked on a variety of problems in stellar astrophysics, including searching for isolated neutron stars and examining the age-rotation-activity relation in open clusters.
NOTE: some special characters may not display properly (any characters within {} are an attempt to place the proper accent above a character)
Reference: 20120406/MPCPages.arcLast Updated: 2012-04-09

Alternate Designations
 2002 TD304 = 1993 TT48 = 2001 KO64 
Ephemeris | Orbit Diagram | Orbital Elements | Physical Parameters | Discovery Circumstances ]
ABOUT SSD CREDITS/AWARDS PRIVACY/COPYRIGHT GLOSSARY LINKS
FirstGov 2014-Apr-25 01:57 UT
(server date/time)  
NASA Home Page
Site Manager:   Donald K. Yeomans
Webmaster  Alan B. Chamberlin